Flag for U.S.A. Weather past 2 weeks in Mansfield, Texas, U.S.A.

Now
70 °F

Fog.


Feels Like: 70 °F
Forecast: 68 / 76 °F
Wind: 6 mph from Southeast

Location: Burleson-Rendon

Current Time: May 23, 2015 at 8:57:35 AM

Latest Report: May 23, 2015 at 7:48 AM


Visibility: 2 mi

Pressure: 30.11 "Hg

Humidity: 94%

Dew point: 68 °F

Location of MansfieldLocation

Historic Weather in Mansfield — Graph

°F

Mansfield temperature yesterday

Maximum temperature yesterday: 72 °F (at 4:50 PM)
Minimum temperature yesterday: 61 °F (at 4:55 AM)
Average temperature yesterday: 64 °F

Past Weeks' High & Low Weather Summary

 TemperatureHumidityPressure
High90 °F (May 18, 3:58 PM)100% (May 10, 7:46 AM)30.30 "Hg (May 10, 7:46 AM)
Low55 °F (May 21, 6:54 AM)37% (May 17, 6:49 PM)29.75 "Hg (May 9, 5:47 PM)
Average70 °F85%30.01 "Hg
* Reported May 8 6:15 AM — May 23 6:49 AM, Mansfield, Weather by CustomWeather, © 2015

Note: Actual official high and low records may vary slightly from our data, if they occured in-between our weather recording intervals... More about our weather records

Advertising

Mansfield weather history for previous 24 hours

 ConditionsComfort  
Time TempWeatherWind HumidityBarometerVisibility
6:49 AM
Sat, May 23
70 °FFog.6 mph94%30.11 "Hg1 mi
6:15 AM70 °FLight rain. Low clouds.3 mph95%30.10 "Hg2 mi
5:55 AM70 °FFog.8 mph95%30.10 "Hg3 mi
5:35 AM70 °FFog.9 mph94%30.10 "Hg4 mi
5:15 AM71 °FFog.8 mph93%30.10 "Hg3 mi
4:55 AM71 °FFog.8 mph92%30.09 "Hg4 mi
4:35 AM71 °FFog.5 mph91%30.10 "Hg4 mi
4:15 AM71 °FFog.3 mph91%30.10 "Hg5 mi
3:55 AM71 °FFog.3 mph91%30.10 "Hg5 mi
3:35 AM71 °FFog.3 mph91%30.10 "Hg5 mi
3:15 AM71 °FFog.3 mph91%30.10 "Hg5 mi
2:55 AM71 °FFog.9 mph91%30.10 "Hg5 mi
2:15 AM71 °FOvercast.8 mph90%30.10 "Hg7 mi
1:55 AM71 °FMostly cloudy.10 mph91%30.10 "Hg7 mi
1:35 AM71 °FMostly cloudy.8 mph90%30.10 "Hg7 mi
1:15 AM71 °FOvercast.8 mph89%30.10 "Hg7 mi
12:55 AM71 °FFog.7 mph88%30.10 "Hg5 mi
12:15 AM71 °FOvercast.No wind89%30.10 "Hg7 mi
11:55 PM
Fri, May 22
71 °FFog.No wind91%30.10 "Hg5 mi
11:35 PM70 °FFog.No wind92%30.11 "Hg5 mi
10:55 PM69 °FFog.No wind93%30.12 "Hg4 mi
10:35 PM69 °FFog.No wind92%30.11 "Hg5 mi
10:15 PM69 °FFog.No wind92%30.11 "Hg5 mi
9:55 PM69 °FFog.No wind92%30.10 "Hg5 mi
9:35 PM68 °FFog.5 mph94%30.10 "Hg4 mi
9:15 PM67 °FFog.3 mph93%30.10 "Hg4 mi
8:55 PM67 °FFog.3 mph93%30.10 "Hg5 mi
8:35 PM68 °FFog.5 mph92%30.10 "Hg5 mi
8:15 PM68 °FDrizzle. Overcast.3 mph91%30.10 "Hg5 mi
6:49 PM70 °FOvercast.No wind88%30.09 "Hg7 mi
5:48 PM72 °FOvercast.No wind78%30.11 "Hg5 mi
4:50 PM72 °FOvercast.5 mph78%30.11 "Hg7 mi
3:53 PM70 °FOvercast.6 mph83%30.12 "Hg5 mi
3:06 PM66 °FFog.5 mph88%30.14 "Hg5 mi
2:48 PM66 °FFog.6 mph88%30.14 "Hg4 mi
1:55 PM63 °FFog.9 mph100%30.14 "Hg2 mi
12:55 PM61 °FLight rain. Low clouds.9 mph94%30.16 "Hg3 mi
11:49 AM63 °FFog.No wind94%30.16 "Hg4 mi
10:51 AM63 °FFog.3 mph94%30.16 "Hg4 mi
9:52 AM61 °FFog.8 mph94%30.17 "Hg5 mi
8:55 AM61 °FFog.3 mph94%30.17 "Hg5 mi
Weather by CustomWeather, © 2015

See weather overviewHow to use our weather pages